CW5193 New Chelsea NF CA current weather conditions

sailwx.info

Wind from 055 at 22 knots gusting 26

Air temperature 1.1° C
Dewpoint -0.3° C

Last reported at 2014-Dec-20 07:51 UTC.
Time now 2014-Dec-20 08:46 UTC

Location: N 48°02' W 053°13'.
View on Google Maps.

See reports from other nearby stations

  
Tides and Currents Weather Stations Pressure Air Temp Water Temp Dewpoint Dewpoint Depression Visibility Wind Speed Wind Dir Waves Ship Positions
date/time (UTC)wind fromknots sea level pressurealtimeterstation pressurevisibilityair tempwater tempwave heightnotes
2014-Dec-20 07:51 055 22 gusting 26 1.1
2014-Dec-20 07:41 046 19 gusting 25 1.1
2014-Dec-20 07:31 058 19 gusting 23 1.1
2014-Dec-20 07:21 038 18 gusting 24 1.1
2014-Dec-20 07:11 031 19 gusting 24 1.1
2014-Dec-20 07:01 036 18 gusting 22 1.1
2014-Dec-20 06:51 054 18 gusting 26 1.1
2014-Dec-20 06:41 040 19 gusting 25 1.1
2014-Dec-20 06:31 038 19 gusting 22 1.1
2014-Dec-20 06:21 037 20 gusting 24 1.1
2014-Dec-20 06:11 036 13 gusting 22 1.1
2014-Dec-20 06:01 017 15 gusting 20 1.1
2014-Dec-20 05:50 032 10 gusting 19 1.1
2014-Dec-20 05:41 034 15 gusting 17 1.1
2014-Dec-20 05:31 036 12 gusting 16 1.1
2014-Dec-20 05:21 029 11 gusting 16 1.1
2014-Dec-20 05:11 044 13 gusting 14 1.7
2014-Dec-20 05:01 025 10 gusting 15 1.7
2014-Dec-20 04:51 020 8 gusting 13 1.7
2014-Dec-20 04:41 022 5 gusting 12 1.1
2014-Dec-20 04:31 022 9 gusting 13 1.1
2014-Dec-20 04:21 021 4 gusting 9 1.1
2014-Dec-20 04:11 360 3 gusting 8 1.1
2014-Dec-20 04:01 009 3 gusting 8 1.1
2014-Dec-20 03:50 350 2 gusting 6 1.1
2014-Dec-20 03:41 017 5 gusting 8 1.1
2014-Dec-20 03:31 350 2 gusting 8 1.1
2014-Dec-20 03:21 005 3 gusting 9 1.1
2014-Dec-20 03:11 310 2 gusting 6 1.1
2014-Dec-20 03:01 346 4 gusting 9 1.1
2014-Dec-20 02:51 355 4 gusting 11 1.1
2014-Dec-20 02:41 355 2 gusting 9 1.1
2014-Dec-20 02:31 025 4 gusting 9 1.1
2014-Dec-20 02:21 348 4 gusting 10 1.1
2014-Dec-20 02:11 338 4 gusting 11 1.1
2014-Dec-20 02:01 360 5 gusting 8 0.6
2014-Dec-20 01:51 018 4 gusting 9 0.6
2014-Dec-20 01:41 349 4 gusting 9 0.6
2014-Dec-20 01:31 011 3 gusting 11 1.1
2014-Dec-20 01:21 329 4 gusting 11 1.1
2014-Dec-20 01:11 338 2 gusting 11 0.6
2014-Dec-20 01:01 290 2 gusting 9 0.6
2014-Dec-20 00:51 282 0 gusting 8 1.1
2014-Dec-20 00:41 025 3 gusting 11 1.1
2014-Dec-20 00:31 315 4 gusting 13 2.2
2014-Dec-20 00:21 317 10 gusting 14 3.9
2014-Dec-20 00:11 266 8 gusting 19 3.9
2014-Dec-20 00:01 233 10 gusting 20 3.9
2014-Dec-19 23:51 256 9 gusting 17 3.9
2014-Dec-19 23:41 231 9 gusting 18 3.9
2014-Dec-19 23:31 288 9 gusting 17 3.9
2014-Dec-19 23:20 249 9 gusting 18 3.9
2014-Dec-19 23:11 228 8 gusting 16 3.9
2014-Dec-19 23:01 217 10 gusting 21 3.9
2014-Dec-19 22:51 259 10 gusting 19 3.9
2014-Dec-19 22:41 254 9 gusting 17 3.9
2014-Dec-19 22:31 238 9 gusting 17 3.9
2014-Dec-19 22:21 254 9 gusting 15 3.9
2014-Dec-19 22:11 269 12 gusting 19 3.3
2014-Dec-19 22:01 229 12 gusting 19 3.3
2014-Dec-19 21:51 216 9 gusting 16 3.3
2014-Dec-19 21:41 248 13 gusting 18 3.3
2014-Dec-19 21:31 238 12 gusting 23 3.3
2014-Dec-19 21:21 226 8 gusting 19 3.3
2014-Dec-19 21:11 240 8 gusting 22 3.3
2014-Dec-19 21:01 229 15 gusting 22 3.3
2014-Dec-19 20:51 217 8 gusting 19 3.9
2014-Dec-19 20:41 246 15 gusting 24 3.9
2014-Dec-19 20:31 222 12 gusting 24 3.9
2014-Dec-19 20:21 250 12 gusting 25 3.9
2014-Dec-19 20:11 231 14 gusting 24 3.9
2014-Dec-19 20:01 262 9 gusting 19 3.9
2014-Dec-19 19:50 225 13 gusting 23 3.9
2014-Dec-19 19:41 242 15 gusting 26 3.9
2014-Dec-19 19:31 241 14 gusting 22 4.4
2014-Dec-19 19:21 236 10 gusting 27 4.4
2014-Dec-19 19:11 200 14 gusting 26 4.4
2014-Dec-19 19:01 232 16 gusting 25 4.4
2014-Dec-19 18:51 225 13 gusting 28 4.4
2014-Dec-19 18:41 233 17 gusting 29 5.0
2014-Dec-19 18:31 232 14 gusting 28 5.0
2014-Dec-19 18:21 226 17 gusting 27 5.0
2014-Dec-19 18:11 259 18 gusting 26 5.0
2014-Dec-19 18:01 240 17 gusting 28 5.0
2014-Dec-19 17:50 240 14 gusting 29 5.0
2014-Dec-19 17:41 261 16 gusting 28 5.0
2014-Dec-19 17:31 240 13 gusting 28 5.0
2014-Dec-19 17:21 214 14 gusting 30 5.0
2014-Dec-19 17:11 213 17 gusting 31 5.0
2014-Dec-19 17:01 246 17 gusting 28 5.6
2014-Dec-19 16:51 225 20 gusting 28 5.6
2014-Dec-19 16:41 254 16 gusting 35 5.6
2014-Dec-19 16:31 229 17 gusting 33 5.6
2014-Dec-19 16:21 264 12 gusting 30 5.6
2014-Dec-19 16:11 244 19 gusting 32 6.1
2014-Dec-19 16:01 242 14 gusting 36 5.6
2014-Dec-19 15:51 211 15 gusting 31 5.6
2014-Dec-19 15:41 227 17 gusting 32 5.6
2014-Dec-19 15:31 230 19 gusting 33 5.6
2014-Dec-19 15:21 231 16 gusting 29 5.6
2014-Dec-19 15:11 227 23 gusting 31 5.6
2014-Dec-19 15:01 257 24 gusting 34 5.6
2014-Dec-19 14:51 269 18 gusting 37 5.6
2014-Dec-19 14:41 210 17 gusting 30 5.6
2014-Dec-19 14:31 222 17 gusting 37 5.6
2014-Dec-19 14:21 237 22 gusting 37 5.6
2014-Dec-19 14:11 260 20 gusting 37 5.6
2014-Dec-19 14:00 227 17 gusting 39 6.1
2014-Dec-19 13:50 245 19 gusting 36 6.1
2014-Dec-19 13:41 240 20 gusting 35 6.1
2014-Dec-19 13:31 245 19 gusting 33 6.1
2014-Dec-19 13:20 232 18 gusting 38 6.1
2014-Dec-19 13:11 214 19 gusting 35 6.1
2014-Dec-19 13:00 232 25 gusting 38 6.1
2014-Dec-19 12:50 203 25 gusting 34 6.1
2014-Dec-19 12:41 227 18 gusting 40 6.1
2014-Dec-19 12:31 223 22 gusting 37 6.1
2014-Dec-19 12:21 245 20 gusting 34 6.1
2014-Dec-19 12:11 230 24 gusting 34 6.1
2014-Dec-19 12:01 233 17 gusting 36 6.1
2014-Dec-19 11:51 245 15 gusting 31 6.1
2014-Dec-19 11:41 223 20 gusting 32 6.1
2014-Dec-19 11:31 181 19 gusting 33 6.1
2014-Dec-19 11:21 256 19 gusting 35 6.1
2014-Dec-19 11:11 242 19 gusting 31 6.1
2014-Dec-19 11:01 232 19 gusting 26 6.7
2014-Dec-19 10:51 202 20 gusting 28 7.2
2014-Dec-19 10:41 200 19 gusting 34 7.2
2014-Dec-19 10:31 219 15 gusting 23 7.8
2014-Dec-19 10:20 224 15 gusting 25 7.8
2014-Dec-19 10:11 231 18 gusting 25 8.3
2014-Dec-19 10:01 219 14 gusting 26 8.3
2014-Dec-19 09:51 210 12 gusting 19 8.3
2014-Dec-19 09:41 252 11 gusting 20 8.9
2014-Dec-19 09:30 218 13 gusting 19 8.9
2014-Dec-19 09:21 221 13 gusting 24 8.9
2014-Dec-19 09:11 201 11 gusting 18 8.3
2014-Dec-19 09:01 173 13 gusting 22 8.3
2014-Dec-19 08:50 181 10 gusting 17 8.3
2014-Dec-19 08:41 174 8 gusting 14 8.9
2014-Dec-19 08:30 205 7 gusting 13 8.9
2014-Dec-19 08:21 187 6 gusting 11 8.3
2014-Dec-19 08:10 122 3 gusting 10 8.3
2014-Dec-19 08:01 182 4 gusting 8 7.8
2014-Dec-19 07:51 167 3 gusting 7 7.8
2014-Dec-19 07:40 161 7.8
2014-Dec-19 07:30 134 6 gusting 11 7.8
2014-Dec-19 07:20 130 7 gusting 12 7.8
2014-Dec-19 07:11 136 5 gusting 8 7.8
2014-Dec-19 07:01 123 6 gusting 9 7.8
2014-Dec-19 06:50 118 4 gusting 5 7.8
2014-Dec-19 06:41 201 1 gusting 3 7.2
2014-Dec-19 06:31 201 2 gusting 4 7.2
2014-Dec-19 06:21 200 1 gusting 3 7.8
2014-Dec-19 06:11 200 1 gusting 7 7.8
2014-Dec-19 06:01 038 7.8
2014-Dec-19 05:51 039 5 gusting 6 7.2
2014-Dec-19 05:41 057 2 gusting 6 6.7
2014-Dec-19 05:31 094 3 gusting 4 7.2
2014-Dec-19 05:21 225 3 gusting 4 7.8
2014-Dec-19 05:11 225 1 gusting 5 8.3
2014-Dec-19 05:01 224 2 gusting 8 8.3
2014-Dec-19 04:51 208 4 gusting 11 8.3
2014-Dec-19 04:41 229 6 gusting 12 8.3
2014-Dec-19 04:31 214 9 gusting 13 7.8
2014-Dec-19 04:21 263 3 gusting 10 7.2
2014-Dec-19 04:11 244 9 gusting 13 7.2
2014-Dec-19 04:01 258 6 gusting 11 7.2
2014-Dec-19 03:51 293 8 gusting 12 7.2
2014-Dec-19 03:41 177 5 gusting 16 7.8
2014-Dec-19 03:31 101 7 gusting 13 7.2
2014-Dec-19 03:21 145 8 gusting 21 7.2
2014-Dec-19 03:11 162 13 gusting 22 7.2
2014-Dec-19 03:01 153 14 gusting 23 6.7
2014-Dec-19 02:51 163 10 gusting 24 6.7
2014-Dec-19 02:41 162 12 gusting 19 6.7
2014-Dec-19 02:31 198 11 gusting 20 6.7
2014-Dec-19 02:20 281 3 gusting 13 6.1
2014-Dec-19 02:11 094 2 gusting 6 5.6
2014-Dec-19 02:01 046 3 gusting 9 5.6
2014-Dec-19 01:50 172 3 gusting 12 5.6
2014-Dec-19 01:41 187 5 gusting 15 5.6
2014-Dec-19 01:31 157 8 gusting 19 5.6
2014-Dec-19 01:21 123 10 gusting 18 5.6
2014-Dec-19 01:11 163 8 gusting 19 5.6
2014-Dec-19 01:01 176 9 gusting 18 5.6
2014-Dec-19 00:51 165 10 gusting 18 5.6
2014-Dec-19 00:41 161 10 gusting 19 5.6
2014-Dec-19 00:31 119 9 gusting 18 6.1
2014-Dec-19 00:20 188 11 gusting 22 6.1
2014-Dec-19 00:11 159 13 gusting 22 6.1
2014-Dec-19 00:00 150 8 gusting 19 5.6
2014-Dec-18 23:51 151 9 gusting 18 5.6
2014-Dec-18 23:41 194 11 gusting 19 5.6
2014-Dec-18 23:31 140 9 gusting 29 6.1
2014-Dec-18 23:21 189 12 gusting 28 6.1
2014-Dec-18 23:11 153 18 gusting 28 6.1
2014-Dec-18 23:01 160 15 gusting 30 6.1
2014-Dec-18 22:51 136 17 gusting 24 6.1
2014-Dec-18 22:41 147 6 gusting 15 5.6
2014-Dec-18 22:31 129 4 gusting 10 5.6
2014-Dec-18 22:20 175 6 gusting 13 5.6
2014-Dec-18 22:11 137 4 gusting 13 5.6
2014-Dec-18 22:01 146 9 gusting 19 6.1
2014-Dec-18 21:51 148 10 gusting 22 6.1
2014-Dec-18 21:41 188 9 gusting 27 6.1
2014-Dec-18 21:30 171 12 gusting 27 6.1
2014-Dec-18 21:21 175 15 gusting 27 6.1
2014-Dec-18 21:11 178 14 gusting 25 6.1
2014-Dec-18 21:01 167 9 gusting 26 6.1
2014-Dec-18 20:50 207 15 gusting 23 6.1
2014-Dec-18 20:41 202 15 gusting 29 6.1
2014-Dec-18 20:31 158 16 gusting 27 5.6
2014-Dec-18 20:21 171 13 gusting 26 5.6
2014-Dec-18 20:11 200 15 gusting 26 5.6
2014-Dec-18 20:01 205 15 gusting 25 5.6
2014-Dec-18 19:51 154 13 gusting 26 5.6
2014-Dec-18 19:41 195 12 gusting 23 5.0
2014-Dec-18 19:30 169 13 gusting 26 5.0
2014-Dec-18 19:21 161 10 gusting 24 5.0
2014-Dec-18 19:11 138 13 gusting 22 5.0
2014-Dec-18 19:01 176 6 gusting 16 5.0
2014-Dec-18 18:51 164 11 gusting 21 5.0
2014-Dec-18 18:41 180 9 gusting 23 5.0
2014-Dec-18 18:31 163 11 gusting 26 5.0
2014-Dec-18 18:20 175 12 gusting 25 5.0
2014-Dec-18 18:11 175 13 gusting 24 5.0
2014-Dec-18 18:01 169 15 gusting 26 5.0
2014-Dec-18 17:51 179 13 gusting 25 5.0
2014-Dec-18 17:41 166 11 gusting 25 5.0
2014-Dec-18 17:31 150 17 gusting 27 5.0
2014-Dec-18 17:20 187 13 gusting 26 5.0
2014-Dec-18 17:11 164 14 gusting 28 5.0
2014-Dec-18 17:01 179 15 gusting 34 5.0
2014-Dec-18 16:51 149 15 gusting 28 5.0
2014-Dec-18 16:40 184 13 gusting 23 4.4
2014-Dec-18 16:31 161 16 gusting 28 4.4
2014-Dec-18 16:21 162 17 gusting 28 4.4
2014-Dec-18 16:11 161 16 gusting 26 4.4
2014-Dec-18 16:01 170 13 gusting 25 4.4
2014-Dec-18 15:50 155 15 gusting 24 4.4
2014-Dec-18 15:41 150 13 gusting 22 4.4
2014-Dec-18 15:31 122 13 gusting 19 3.9
2014-Dec-18 15:21 155 7 gusting 21 3.9
2014-Dec-18 15:11 125 10 gusting 15 3.9
2014-Dec-18 15:01 136 9 gusting 19 3.3
2014-Dec-18 14:51 126 11 gusting 22 3.3
2014-Dec-18 14:40 184 15 gusting 24 3.3
2014-Dec-18 14:31 168 17 gusting 24 3.3
2014-Dec-18 14:20 158 10 gusting 26 3.3
2014-Dec-18 14:11 169 9 gusting 16 3.3
2014-Dec-18 14:01 101 7 gusting 13 3.9
2014-Dec-18 13:51 160 3 gusting 12 3.9
2014-Dec-18 13:41 148 2 gusting 7 3.3
2014-Dec-18 13:31 118 2 gusting 11 3.3
2014-Dec-18 13:21 157 4 gusting 8 3.3
2014-Dec-18 13:11 184 0 gusting 8 3.3
2014-Dec-18 13:01 182 2 gusting 12 2.8
2014-Dec-18 12:51 123 5 gusting 6 2.8
2014-Dec-18 12:41 109 5 gusting 8 2.8
2014-Dec-18 12:31 124 4 gusting 12 2.8
2014-Dec-18 12:21 111 1 gusting 8 2.8
2014-Dec-18 12:11 171 1 gusting 10 2.2
2014-Dec-18 12:01 099 3 gusting 6 2.2
2014-Dec-18 11:51 157 4 gusting 8 2.2
2014-Dec-18 11:41 081 2 gusting 4 2.2
2014-Dec-18 11:31 079 0 gusting 5 1.7
2014-Dec-18 11:21 081 4 gusting 6 1.7
2014-Dec-18 11:11 070 4 gusting 6 1.7
2014-Dec-18 11:01 152 2 gusting 4 1.7
2014-Dec-18 10:50 153 0 gusting 3 1.7
2014-Dec-18 10:41 153 1.1
2014-Dec-18 10:31 153 1.1
2014-Dec-18 10:21 153 1.1
2014-Dec-18 10:11 152 1 gusting 2 1.1
2014-Dec-18 10:01 153 1 gusting 2 1.1
2014-Dec-18 09:51 153 1 gusting 3 1.1
2014-Dec-18 09:40 152 1.1
2014-Dec-18 09:31 152 0 gusting 3 1.1
2014-Dec-18 09:20 153 2 gusting 3 1.1
2014-Dec-18 09:11 153 2 gusting 3 1.1
2014-Dec-18 09:00 152 0 gusting 2 0.6
2014-Dec-18 08:50 153 1 gusting 2 0.6
2014-Dec-18 08:41 152 1 gusting 2 0.6
2014-Dec-18 08:31 152 0 gusting 1 0.6
2014-Dec-18 08:20 153 0.6
2014-Dec-18 08:11 153 0 gusting 1 -0.0
2014-Dec-18 08:00 153 -0.0